Location: Dompnac
(44.5644°N, 4.1026°E)
Time: 10:34:37
(UTC+00:00)

Cosmos 1680 Rocket - Pass Details

Date: 19 September 2020
Orbit: 760 x 781 km, 74.1° (Epoch: 30 October)

Event Time Altitude Azimuth Distance (km) Brightness Sun altitude
Rises 18:17:12 0° 336° (NNW) 3,234 7.2 -6.4°
Reaches altitude 10° 18:19:35 10° 333° (NNW) 2,306 6.5 -6.8°
Maximum altitude 18:24:45 65° 253° (WSW) 844 4.0 -7.7°
Drops below altitude 10° 18:29:55 10° 173° (S) 2,302 5.8 -8.6°
Sets 18:32:18 0° 170° (S) 3,228 6.5 -9.0°
